User: anonymous   Login
Location: Unspecified
(40.8819°N, 0.0000°E)
Time: 21:51:58
(UTC+00:00)
Language:

XW-2B - Orbit

View from above orbital plane
View from above orbital plane
View from above satellite
View from above satellite

Ground track
Ground track

The orbit data is extracted from the following two-line orbital elements,

1 40911U 15049N   24115.53785347  .00052902  00000-0  11487-2 0  9990
2 40911  97.4745 133.2571 0009905 121.6659 238.5556 15.44146922476276
Epoch (UTC): 24 April 2024 12:54:30
Eccentricity: 0.0009905
inclination: 97.4745°
perigee height: 427 km
apogee height: 440 km
right ascension of ascending node: 133.2571°
argument of perigee: 121.6659°
revolutions per day: 15.44146922
mean anomaly at epoch: 238.5556°
orbit number at epoch: 47627

The dashed part of the orbit path shows where the satellite is in the earth's shadow,  

DLR